This demonstration page uses our WeatherBlox Daily Observations layout. Learn more.

Hourly Observations for February 12, 2019

Temp ( °F °C ) Dew Point ( °F °C ) Humidity (%) Winds ( mph kmh ) Pressure ( in mb ) Visibility ( mi km ) Precip ( " mm )
12:15 am 00:15 Clear 23 -5 22 -5.3 98 98 NW 8 13 30.08 1019 10 16.0934 0 0
12:35 am 00:35 Clear 22 -5.4 21 -6.1 95 95 NW 7 11 30.1 1019 10 16.0934 0 0
12:55 am 00:55 Clear 21 -6.3 19 -7 95 95 NW 7 11 30.12 1020 10 16.0934 0 0
1:15 am 01:15 Clear 21 -6.2 19 -7 94 94 NW 7 11 30.12 1020 10 16.0934 0 0
1:35 am 01:35 Clear 19 -7.1 18 -7.9 94 94 NW 3 6 30.13 1020 10 16.0934 0 0
1:55 am 01:55 Clear 18 -7.8 17 -8.6 94 94 WNW 5 7 30.14 1021 10 16.0934 0 0
2:15 am 02:15 Clear 19 -7.5 17 -8.5 93 93 WNW 7 11 30.15 1021 10 16.0934 0 0
2:35 am 02:35 Clear 19 -7.4 17 -8.5 92 92 WNW 7 11 30.15 1021 10 16.0934 0 0
2:55 am 02:55 Clear 19 -7.3 17 -8.5 91 91 NW 6 9 30.15 1021 10 16.0934 0 0
3:15 am 03:15 Clear 19 -7.5 17 -8.6 92 92 WNW 6 9 30.16 1021 10 16.0934 0 0
3:35 am 03:35 Clear 18 -7.6 16 -9 90 90 W 3 6 30.17 1022 10 16.0934 0 0
3:55 am 03:55 Clear 18 -8 15 -9.2 91 91 WNW 5 7 30.17 1022 10 16.0934 0 0
4:15 am 04:15 Clear 18 -7.9 15 -9.2 91 91 W 6 9 30.17 1022 10 16.0934 0 0
4:35 am 04:35 Clear 17 -8.2 15 -9.5 90 90 WNW 5 7 30.18 1022 10 16.0934 0 0
4:55 am 04:55 Clear 16 -8.7 14 -9.8 92 92 WNW 6 9 30.19 1022 10 16.0934 0 0
5:15 am 05:15 Clear 18 -8 15 -9.3 90 90 WNW 6 9 30.19 1022 10 16.0934 0 0
5:35 am 05:35 Clear 16 -9 14 -10.2 91 91 NW 5 7 30.2 1023 10 16.0934 0 0
5:55 am 05:55 Clear 16 -8.9 13 -10.3 90 90 WNW 3 6 30.21 1023 10 16.0934 0 0
6:15 am 06:15 Clear 15 -9.7 12 -10.9 91 91 NW 5 7 30.23 1024 10 16.0934 0 0
6:35 am 06:35 Clear 13 -10.5 11 -11.5 92 92 Calm 30.24 1024 10 16.0934 0 0
6:55 am 06:55 Clear 13 -10.6 11 -11.5 93 93 NNW 3 6 30.24 1024 10 16.0934 0 0
7:15 am 07:15 Clear 13 -10.8 11 -11.5 95 95 WNW 3 6 30.25 1024 10 16.0934 0 0
7:35 am 07:35 Sunny 13 -10.8 11 -11.5 95 95 W 5 7 30.26 1025 10 16.0934 0 0
7:55 am 07:55 Sunny 15 -9.5 13 -10.5 93 93 WNW 7 11 30.26 1025 10 16.0934 0 0
8:15 am 08:15 Sunny 14 -9.8 13 -10.8 93 93 NW 5 7 30.27 1025 10 16.0934 0 0
8:35 am 08:35 Sunny 17 -8.2 16 -9.1 93 93 NW 6 9 30.27 1025 10 16.0934 0 0
8:55 am 08:55 Sunny 20 -6.6 17 -8.1 89 89 WNW 6 9 30.25 1024 10 16.0934 0 0
9:15 am 09:15 Sunny 22 -5.6 18 -7.6 86 86 NW 6 9 30.26 1025 10 16.0934 0 0
9:35 am 09:35 Sunny 23 -4.9 20 -6.7 87 87 NW 6 9 30.25 1024 10 16.0934 0 0
9:55 am 09:55 Sunny 24 -4.2 20 -6.4 85 85 WNW 7 11 30.26 1025 10 16.0934 0 0
10:15 am 10:15 Sunny 25 -4 21 -5.9 87 87 NW 6 9 30.25 1025 10 16.0934 0 0
10:35 am 10:35 Sunny 27 -3 23 -5.2 85 85 NW 9 15 30.25 1025 10 16.0934 0 0
10:55 am 10:55 Sunny 27 -2.6 22 -5.6 80 80 N 9 15 30.25 1024 10 16.0934 0 0
11:15 am 11:15 Sunny 27 -2.6 23 -5 84 84 NNW 6 9 30.25 1024 10 16.0934 0 0
11:35 am 11:35 Sunny 28 -2.5 23 -5.1 83 83 NNW 7 11 30.24 1024 10 16.0934 0 0
11:55 am 11:55 Sunny 28 -2 24 -4.7 82 82 NW 7 11 30.24 1024 10 16.0934 0 0
12:15 pm 12:15 Sunny 29 -1.6 24 -4.4 81 81 NW 8 13 30.24 1024 10 16.0934 0 0
12:35 pm 12:35 Sunny 30 -1.1 25 -3.9 82 82 NW 9 15 30.24 1024 10 16.0934 0 0
12:55 pm 12:55 Sunny 31 -0.6 25 -3.7 80 80 NNW 6 9 30.23 1024 10 16.0934 0 0
1:15 pm 13:15 Sunny 32 -0.1 26 -3.2 80 80 NW 6 9 30.22 1023 10 16.0934 0 0
1:35 pm 13:35 Sunny 32 0 27 -2.7 82 82 NNW 6 9 30.21 1023 10 16.0934 0 0
1:55 pm 13:55 Sunny 33 0.3 27 -2.7 81 81 WNW 5 7 30.2 1023 10 16.0934 0 0
2:15 pm 14:15 Sunny 34 1 27 -2.8 76 76 WNW 5 7 30.19 1022 10 16.0934 0 0
2:35 pm 14:35 Sunny 35 1.5 26 -3.1 72 72 WNW 6 9 30.18 1022 10 16.0934 0 0
2:55 pm 14:55 Sunny 36 2 27 -2.8 71 71 W 5 7 30.18 1022 10 16.0934 0 0
3:15 pm 15:15 Sunny 37 2.5 27 -2.6 69 69 W 10 17 30.17 1022 10 16.0934 0 0
3:35 pm 15:35 Sunny 37 3 27 -2.6 67 67 NW 6 9 30.16 1021 10 16.0934 0 0
3:55 pm 15:55 Sunny 38 3.3 27 -2.8 65 65 W 7 11 30.16 1021 10 16.0934 0 0
4:15 pm 16:15 Sunny 38 3.5 26 -3.6 60 60 WNW 7 11 30.16 1021 10 16.0934 0 0
4:35 pm 16:35 Sunny 38 3.6 26 -3.3 61 61 NW 7 11 30.15 1021 10 16.0934 0 0
4:55 pm 16:55 Sunny 39 3.7 26 -3.5 60 60 WNW 3 6 30.15 1021 10 16.0934 0 0
5:15 pm 17:15 Sunny 38 3.2 25 -4 60 60 Calm 30.14 1021 10 16.0934 0 0
5:35 pm 17:35 Sunny 38 3.1 25 -4.1 60 60 Calm 30.15 1021 10 16.0934 0 0
6:15 pm 18:15 Clear 35 1.4 25 -3.8 69 69 SE 3 6 30.16 1021 10 16.0934 0 0
6:35 pm 18:35 Clear 33 0.5 25 -4 72 72 SE 5 7 30.16 1021 10 16.0934 0 0
6:55 pm 18:55 Clear 33 0.5 25 -4 72 72 S 5 7 30.18 1022 10 16.0934 0 0
7:15 pm 19:15 Clear 32 0 24 -4.2 74 74 S 7 11 30.18 1022 10 16.0934 0 0
7:35 pm 19:35 Clear 31 -0.5 24 -4.2 76 76 SSE 5 7 30.17 1022 10 16.0934 0 0
7:55 pm 19:55 Clear 30 -1.3 24 -4.3 80 80 S 6 9 30.18 1022 10 16.0934 0 0
8:15 pm 20:15 Clear 31 -0.8 24 -4.5 76 76 S 6 9 30.18 1022 10 16.0934 0 0
8:35 pm 20:35 Clear 29 -1.8 23 -5 79 79 S 6 9 30.2 1023 10 16.0934 0 0
8:55 pm 20:55 Clear 28 -2.3 23 -5 82 82 S 7 11 30.2 1023 10 16.0934 0 0
9:15 pm 21:15 Clear 29 -1.5 23 -5.1 77 77 SSE 7 11 30.19 1022 10 16.0934 0 0
9:35 pm 21:35 Clear 26 -3.1 22 -5.4 84 84 SSE 5 7 30.21 1023 10 16.0934 0 0
9:55 pm 21:55 Clear 27 -2.7 22 -5.3 83 83 S 6 9 30.2 1023 10 16.0934 0 0
10:15 pm 22:15 Clear 29 -1.9 22 -5.3 78 78 S 6 9 30.19 1022 10 16.0934 0 0
10:35 pm 22:35 Clear 28 -2 23 -5.2 79 79 S 6 9 30.18 1022 10 16.0934 0 0
10:55 pm 22:55 Clear 28 -2.2 23 -5.1 81 81 S 5 7 30.2 1023 10 16.0934 0 0
11:15 pm 23:15 Clear 31 -0.5 24 -4.2 76 76 S 7 11 30.17 1022 10 16.0934 0 0
11:35 pm 23:35 Clear 29 -1.5 24 -4.6 80 80 S 7 11 30.18 1022 10 16.0934 0 0
11:55 pm 23:55 Clear 28 -2.1 24 -4.7 83 83 S 8 13 30.18 1022 10 16.0934 0 0

Powered by AerisWeather